Погода в Сухане

Погода в Сухане : погода сейчас, прогноз погоды и архив. Всё, что Вы хотите узнать о погоде в Сухане!

Поиск расширенной информации на нашем сайте:

Другие новости

Новости СМИ2

Главная страница сайта

Новости сайта

03.07.2017

Напоминаем, что на нашем специализированном сайте Метеоцентр.Азия вы можете получить высокодетализированные автоматические прогнозы погоды по пунктам России, СНГ и мира в авиационном формате (включающие направление и скорость ветра, видимость, явления погоды, количество и форму облачности, нижнюю и верхнюю границу облачности).

Рекомендуем: Читайте продажа моторных яхт услуги.

Погода в Сухане - сегодня

Время (UTC), дата Ветер
(°,м/с) 
Видим.   Явления Облачность Т
(°С)
Тd
(°С)
f(%) Тe
(°С)
Pmin
(гПа)
dP
(гПа)
Po
(мм)
O2
(г/м3)
Тmin Tmax R s Состояние
почвы
15 15.10.17 010 (С) 20000 м    3/0 средняя 
[As trans]
-18 -19.9 85 -18  1031.8  1.2  766  332           
18 15.10.17 тихо ()   20000 м    10/0 средняя 
[As op]
-17.8 -19.7 85 -18  1033.4  1.6  767  332           
21 15.10.17 тихо ()   20000 м    10/0 средняя 
[As op]
-16.4 -18.3 85 -16  1034.7  1.6  768  331           
03 16.10.17 240 (ЮЗ) 20000 м    8/8 600 м 
[Sc]
-14.1 -16.1 85 -14  1034.9  -0.4  768  328           
06 16.10.17 260 (З) 20000 м    8/5 1000 м средняя 
[Sc|Ac trans]
-9.3 -12.8 76 -9  1034.3  -0.4  768  322           
09 16.10.17 тихо ()   20000 м    9/9 1000 м 
[Sc]
-8.2 -11.9 75 -8  1034.3  768  320           
12 16.10.17 360 (С) 20000 м    9/9 1000 м 
[Sc]
-8.7 -12 77 -8  1033.5  -0.8  767  321    -7.7       
15 16.10.17 360 (С) 20000 м    9/9 1000 м 
[Sc]
-9.6 -11.7 85 -9  1032.3  -1.2  767  321           
21 16.10.17 тихо ()   20000 м    10/10 1000 м 
[Sc]
-9.7 -11.8 85 -10  1030.2  -1.4  765  321           
00 17.10.17 тихо ()   20000 м    10/5 1000 м средняя 
[Sc|As op]
-9.6 -11.7 85 -10  1028.8  -1.4  764  320  -10.2      17  равномерный
сухой снег
100% 
03 17.10.17 тихо ()   20000 м    10/6 1000 м средняя 
[Sc|As op]
-9.1 -11.1 85 -9  1027.7  -1.1  763  319           
06 17.10.17 тихо ()   20000 м  слаб. снег  10/4 1000 м средняя 
[Sc|As op]
-7.2 -8.1 93 -7  1026.4  -1.1  762  316           
09 17.10.17 300 (СЗ) 20000 м  слаб. снег  10/0 средняя 
[As op]
-7.5 -8.1 95 -7  1026.2  -0.2  762  317           
12 17.10.17 210 (ЮЗ) 20000 м  слаб. снег  10/5 600 м средняя 
[Sc|As op]
-7.6 -8.1 96 -7  1024.7  -1.5  761  316    -7.2  0.0     
15 17.10.17 тихо ()   10 км  слаб. снег  10/5 600 м средняя 
[Sc|As op]
-7.6 -8.1 96 -8  1023.9  -0.8  760  316           
18 17.10.17 020 (С) 20000 м  слаб. снег  10/3 600 м средняя 
[Sc|As op]
-8.6 -9.7 92 -10  1023.3  -0.8  760  317           
21 17.10.17 020 (С) 20000 м  слаб. снег  10/4 600 м средняя 
[Sc|As op]
-9.5 -10.7 91 -11  1023.1  -0.2  760  318           
00 18.10.17 020 (С) 20000 м  слаб. снег  10/3 600 м средняя 
[Sc|As op]
-10.2 -11.5 90 -12  1022.5  -0.6  759  319  -10.2    0.5  18  равномерный
сухой снег
100% 
03 18.10.17 020 (С) 20000 м  слаб. снег  9/8 600 м средняя 
[Sc|As trans]
-9.7 -11.8 85 -11  1023.3  0.8  760  319  -10.4         
06 18.10.17 030 (СВ) 20000 м  {снег}  9/9 600 м 
[Sc]
-8.4 -10.7 83 -10  1023.3  760  317           
09 18.10.17 030 (СВ) 20000 м    10/10 600 м 
[Sc]
-8.2 -10.5 83 -10  1023.5  0.2  760  317           
12 18.10.17 030 (СВ) 20000 м  слаб. снег  10/10 600 м 
[Sc]
-9.2 -11.7 82 -9  1023.9  0.4  760  318    -8.2  0.2     
15 18.10.17 030 (СВ) 20000 м  слаб. снег  10/10 600 м 
[Sc]
-11.1 -12.4 90 -11  1024.5  0.6  761  321           
18 18.10.17 020 (С) 20000 м  {снег}  10/10 600 м 
[Sc]
-10.8 -12.1 90 -11  1025.2  0.7  761  321           
21 18.10.17 030 (СВ) 20000 м    10/10 600 м 
[Sc]
-11.2 -12.5 90 -11  1027.4  1.2  762  321           
Время (UTC), дата Ветер
(°,м/с) 
Видим.   Явления Облачность Т
(°С)
Тd
(°С)
f(%) Тe
(°С)
Pmin
(гПа)
dP
(гПа)
Po
(мм)
O2
(г/м3)
Тmin Tmax R s Состояние
почвы

Для получения пояснительной информации подведите курсор к названию столбца.

ПОГОДА в Сухане - архив

Всё, что Вы хотите узнать о погоде в Сухане - удобно и подробно!

Выберите нужную дату (начиная с 1 января 2015* года) и нажмите кнопку "Найти".
Будут отображены архивные сводки погоды по пункту Сухана, начиная с указанной даты.


Отображать данные в формате CSV (для использования в таблицах Excel)


Внимание! Наш архив погоды предназначен исключительно для личного некоммерческого использования в познавательных целях. Если Вам необходимы официальные справки о состоянии погоды (для производственных, юридических, коммерческих и т.п. целей), обращайтесь в органы Росгидромета.

*Примечание: данная дата относится к архиву по метеостанциям СССР (Россия, СНГ, Балтия).
Архив по метеостанциям Зарубежной Европы и Азии (кроме Китая) хранится 10 дней, по другим регионам земного шара (Китай, Африка, Америка, Австралия, Океания) - 1 день.

Сухана - район местоположения метеостанции


Название, широта, долгота, высота метеостанции:
Сухана 68.62°ш. 118.33°д. 77 м над ур. моря [Российская Федерация]

Дополнительная информация

В oтличие oт бoльшинства пoгoдных сайтoв мы публикуем пoдрoбную метеoинфoрмацию в детальнoм прoфессиoнальнoм фoрмате.

Характеристики температуры и влажнoсти вoздуха измеряются на высoте 2 м в тени вдали oт зданий и деревьев.
Скoрoсть ветра измеряется на высoте 10 м (на урoвне рoста челoвека скoрoсть ветра ниже в 1.5-2 раза). Если метеoстанция нахoдится в гoрoде или в лесу, тo скoрoсть ветра занижена на 2-4 м/с пo сравнению с oткрытым местoм. Скoрoсть ветра над акватoриями крупных рек и oзёр, а также на вершинах хoлмoв на 2-5 м/с выше, чем в oбычных услoвиях.
Атмoсфернoе давление в разных тoчках местнoсти мoжет значительнo oтличаться oт давления на метеoстанции, в зависимoсти oт услoвий рельефа (при пoдъёме на 10 м давление пoнижается примернo на 1 мм рт.ст.).